This is the latest recevied weather packets stored in our database for station/object K4IR. If no packets are shown the sender has not sent any weather packets the latest 10 day(s).
| Time | Temp. | Humidity | Pressure | Rain* | Wind** | Luminosity | Snow |
|---|---|---|---|---|---|---|---|
| 1788262472 | 22.22° C | 99% | 1019.2 hPa | 0 mm | - | 33 W/m² | - |
| 1788261869 | 21.67° C | 99% | 1019 hPa | 0 mm | - | 27 W/m² | - |
| 1788261268 | 21.67° C | 99% | 1019 hPa | 0 mm | - | 19 W/m² | - |
| 1788260662 | 21.67° C | 99% | 1018.9 hPa | 0 mm | - | 10 W/m² | - |
| 1788260060 | 21.67° C | 99% | 1018.8 hPa | 0 mm | - | 6 W/m² | - |
| 1788259456 | 21.11° C | 99% | 1018.6 hPa | 0 mm | - | 2 W/m² | - |
| 1788258851 | 21.11° C | 99% | 1018.5 hPa | 0 mm | - | 0 W/m² | - |
| 1788258247 | 21.11° C | 99% | 1018.4 hPa | 0 mm | - | 0 W/m² | - |
| 1788257642 | 21.11° C | 99% | 1018.2 hPa | 0 mm | - | 0 W/m² | - |
| 1788257043 | 21.11° C | 99% | 1018.1 hPa | 0 mm | - | 0 W/m² | - |
| 1788256440 | 21.11° C | 99% | 1018.2 hPa | 0 mm | - | 0 W/m² | - |
| 1788255840 | 21.11° C | 99% | 1018.1 hPa | 0 mm | - | 0 W/m² | - |
| 1788255240 | 21.11° C | 99% | 1018.2 hPa | 0 mm | - | 0 W/m² | - |
| 1788254636 | 21.11° C | 99% | 1018.3 hPa | 0 mm | - | 0 W/m² | - |
| 1788254032 | 21.67° C | 99% | 1018.2 hPa | 0 mm | - | 0 W/m² | - |
| 1788253428 | 21.67° C | 99% | 1018.4 hPa | 0 mm | - | 0 W/m² | - |
| 1788252824 | 21.67° C | 99% | 1018.4 hPa | 0 mm | - | 0 W/m² | - |
| 1788252223 | 21.67° C | 99% | 1018.5 hPa | 0 mm | - | 0 W/m² | - |
| 1788251623 | 21.11° C | 99% | 1018.5 hPa | 0.51 mm | - | 0 W/m² | - |
| 1788251023 | 21.11° C | 99% | 1018.5 hPa | 0 mm | - | 0 W/m² | - |
| 1788250419 | 21.67° C | 99% | 1018.6 hPa | 0 mm | - | 0 W/m² | - |
| 1788249820 | 21.67° C | 99% | 1018.5 hPa | 0 mm | - | 0 W/m² | - |
| 1788249215 | 21.67° C | 99% | 1018.5 hPa | 0 mm | - | 0 W/m² | - |
| 1788248610 | 21.67° C | 99% | 1018.6 hPa | 0 mm | - | 0 W/m² | - |
| 1788248007 | 21.67° C | 99% | 1018.5 hPa | 0 mm | - | 0 W/m² | - |
* Rain latest hour (hover to see other rain measurements)
** Current wind speed in m/s (hover to see current wind gust speed)